| time (UTC) | temp F | wind direction | speed knots | gust knots | rain 1hr in | rain 24hr in | rain mn in | humidity % | barometer mb |
| 20260504035738 | 32 | 48 | 2.6 | 0.9 | 0.00 | 0.00 | 0.00 | 77 | 1022.5 |
| 20260504035236 | 32 | 37 | 1.7 | 0.9 | 0.00 | 0.00 | 0.00 | 76 | 1022.4 |
| 20260504034736 | 33 | 84 | 1.7 | 2.6 | 0.00 | 0.00 | 0.00 | 76 | 1022.3 |
| 20260504034236 | 33 | 51 | 2.6 | 1.7 | 0.00 | 0.00 | 0.00 | 76 | 1022.3 |
| 20260504033737 | 33 | 58 | 1.7 | 2.6 | 0.00 | 0.00 | 0.00 | 76 | 1022.2 |
| 20260504033237 | 33 | 15 | 2.6 | 1.7 | 0.00 | 0.00 | 0.00 | 76 | 1022.2 |
| 20260504032737 | 33 | 59 | 3.5 | 1.7 | 0.00 | 0.00 | 0.00 | 75 | 1022.1 |
| 20260504032235 | 33 | 56 | 2.6 | 3.5 | 0.00 | 0.00 | 0.00 | 75 | 1022.0 |
| 20260504031735 | 33 | 65 | 2.6 | 3.5 | 0.00 | 0.00 | 0.00 | 74 | 1022.0 |
| 20260504030736 | 34 | 38 | 0.9 | 0.9 | 0.00 | 0.00 | 0.00 | 72 | 1021.9 |
| 20260504030236 | 34 | 63 | 1.7 | 0.9 | 0.00 | 0.00 | 0.00 | 72 | 1021.9 |
| 20260504025737 | 34 | 41 | 0.0 | 0.0 | 0.00 | 0.00 | 0.00 | 72 | 1021.9 |
| 20260504025234 | 34 | 65 | 1.7 | 0.9 | 0.00 | 0.00 | 0.00 | 72 | 1021.8 |
| 20260504024734 | 34 | 58 | 2.6 | 2.6 | 0.00 | 0.00 | 0.00 | 71 | 1021.8 |
| 20260504024235 | 34 | 58 | 2.6 | 1.7 | 0.00 | 0.00 | 0.00 | 70 | 1021.8 |
| 20260504023735 | 34 | 39 | 1.7 | 1.7 | 0.00 | 0.00 | 0.00 | 71 | 1021.7 |
| 20260504023236 | 34 | 73 | 2.6 | 2.6 | 0.00 | 0.00 | 0.00 | 72 | 1021.8 |
| 20260504022736 | 34 | 66 | 2.6 | 2.6 | 0.00 | 0.00 | 0.00 | 72 | 1021.7 |
| 20260504022234 | 34 | 46 | 1.7 | 1.7 | 0.00 | 0.00 | 0.00 | 72 | 1021.7 |
| 20260504021734 | 34 | 41 | 1.7 | 4.3 | 0.00 | 0.00 | 0.00 | 72 | 1021.6 |
| 20260504021234 | 34 | 62 | 3.5 | 3.5 | 0.00 | 0.00 | 0.00 | 72 | 1021.6 |
| 20260504020735 | 34 | 94 | 3.5 | 3.5 | 0.00 | 0.00 | 0.00 | 72 | 1021.5 |
| 20260504020235 | 34 | 84 | 2.6 | 3.5 | 0.00 | 0.00 | 0.00 | 72 | 1021.5 |
| 20260504015735 | 34 | 93 | 2.6 | 1.7 | 0.00 | 0.00 | 0.00 | 72 | 1021.4 |
| 20260504015233 | 34 | 59 | 2.6 | 3.5 | 0.00 | 0.00 | 0.00 | 72 | 1021.4 |
| 20260504014733 | 34 | 42 | 3.5 | 1.7 | 0.00 | 0.00 | 0.00 | 72 | 1021.3 |
| 20260504014234 | 34 | 52 | 4.3 | 3.5 | 0.00 | 0.00 | 0.00 | 71 | 1021.3 |
| 20260504013734 | 34 | 63 | 3.5 | 1.7 | 0.00 | 0.00 | 0.00 | 71 | 1021.3 |
| 20260504013234 | 34 | 83 | 2.6 | 4.3 | 0.00 | 0.00 | 0.00 | 71 | 1021.2 |
| 20260504012735 | 34 | 72 | 1.7 | 5.2 | 0.00 | 0.00 | 0.00 | 72 | 1021.1 |
| 20260504012232 | 34 | 48 | 1.7 | 0.9 | 0.00 | 0.00 | 0.00 | 72 | 1021.1 |
| 20260504011733 | 34 | 46 | 3.5 | 2.6 | 0.00 | 0.00 | 0.00 | 71 | 1021.0 |
| 20260504011233 | 35 | 31 | 3.5 | 4.3 | 0.00 | 0.00 | 0.00 | 72 | 1020.9 |
| 20260504010733 | 34 | 68 | 1.7 | 4.3 | 0.00 | 0.00 | 0.00 | 72 | 1020.9 |
| 20260504010234 | 35 | 37 | 2.6 | 1.7 | 0.00 | 0.00 | 0.00 | 72 | 1020.9 |
| 20260504005734 | 34 | 35 | 3.5 | 2.6 | 0.00 | 0.00 | 0.00 | 71 | 1020.7 |
| 20260504005232 | 35 | 62 | 4.3 | 2.6 | 0.00 | 0.00 | 0.00 | 71 | 1020.7 |
| 20260504004732 | 35 | 65 | 4.3 | 5.2 | 0.00 | 0.00 | 0.00 | 71 | 1020.6 |
| 20260504004232 | 35 | 75 | 2.6 | 1.7 | 0.00 | 0.00 | 0.00 | 71 | 1020.5 |
| 20260504003733 | 35 | 58 | 5.2 | 3.5 | 0.00 | 0.00 | 0.00 | 71 | 1020.5 |
| 20260504003233 | 35 | 30 | 5.2 | 4.3 | 0.00 | 0.00 | 0.00 | 71 | 1020.4 |
| 20260504002733 | 34 | 31 | 6.1 | 6.1 | 0.00 | 0.00 | 0.00 | 71 | 1020.4 |
| 20260504002231 | 34 | 21 | 6.1 | 4.3 | 0.00 | 0.00 | 0.00 | 71 | 1020.3 |
| 20260504001732 | 35 | 21 | 6.1 | 6.1 | 0.00 | 0.00 | 0.00 | 71 | 1020.3 |
| 20260504001232 | 34 | 37 | 4.3 | 4.3 | 0.00 | 0.00 | 0.00 | 71 | 1020.2 |
| 20260504000732 | 34 | 20 | 5.2 | 4.3 | 0.00 | 0.00 | 0.00 | 71 | 1020.1 |
| 20260504000234 | 34 | 31 | 6.1 | 6.1 | 0.00 | 0.00 | 0.00 | 71 | 1020.1 |
| 20260503235733 | 35 | 35 | 5.2 | 7.0 | 0.00 | 0.00 | 0.00 | 71 | 1020.0 |
| 20260503235230 | 35 | 105 | 2.6 | 1.7 | 0.00 | 0.00 | 0.00 | 71 | 1019.9 |
| 20260503234731 | 35 | 100 | 4.3 | 3.5 | 0.00 | 0.00 | 0.00 | 70 | 1019.8 |
| 20260503234231 | 35 | 83 | 4.3 | 5.2 | 0.00 | 0.00 | 0.00 | 71 | 1019.8 |
| 20260503233731 | 35 | 105 | 4.3 | 1.7 | 0.00 | 0.00 | 0.00 | 71 | 1019.7 |
| 20260503233232 | 35 | 76 | 4.3 | 5.2 | 0.00 | 0.00 | 0.00 | 71 | 1019.7 |
| 20260503232732 | 35 | 52 | 3.5 | 2.6 | 0.00 | 0.00 | 0.00 | 71 | 1019.6 |
| 20260503232230 | 35 | 111 | 4.3 | 4.3 | 0.00 | 0.00 | 0.00 | 71 | 1019.7 |
| 20260503231730 | 35 | 66 | 3.5 | 1.7 | 0.00 | 0.00 | 0.00 | 71 | 1019.4 |
| 20260503231231 | 35 | 82 | 3.5 | 2.6 | 0.00 | 0.00 | 0.00 | 71 | 1019.3 |
| 20260503230731 | 35 | 34 | 4.3 | 7.0 | 0.00 | 0.00 | 0.00 | 71 | 1019.2 |
| 20260503230231 | 35 | 42 | 4.3 | 3.5 | 0.00 | 0.00 | 0.00 | 71 | 1019.1 |
| 20260503225732 | 35 | 60 | 1.7 | 1.7 | 0.00 | 0.00 | 0.00 | 71 | 1019.1 |
| 20260503225229 | 35 | 69 | 3.5 | 3.5 | 0.00 | 0.00 | 0.00 | 70 | 1019.0 |
| 20260503224730 | 35 | 55 | 3.5 | 1.7 | 0.00 | 0.00 | 0.00 | 69 | 1018.9 |
| 20260503224230 | 35 | 75 | 2.6 | 1.7 | 0.00 | 0.00 | 0.00 | 69 | 1018.9 |
| 20260503223731 | 35 | 120 | 3.5 | 2.6 | 0.00 | 0.00 | 0.00 | 69 | 1018.7 |
| 20260503223231 | 35 | 66 | 2.6 | 0.0 | 0.00 | 0.00 | 0.00 | 70 | 1018.7 |
| 20260503222731 | 35 | 77 | 5.2 | 5.2 | 0.00 | 0.00 | 0.00 | 69 | 1018.6 |
| 20260503222229 | 35 | 91 | 5.2 | 5.2 | 0.00 | 0.00 | 0.00 | 69 | 1018.6 |
| 20260503221729 | 35 | 113 | 1.7 | 2.6 | 0.00 | 0.00 | 0.00 | 70 | 1018.5 |
| 20260503221230 | 35 | 55 | 3.5 | 4.3 | 0.00 | 0.00 | 0.00 | 70 | 1018.5 |
| 20260503220730 | 35 | 48 | 2.6 | 3.5 | 0.00 | 0.00 | 0.00 | 70 | 1018.3 |
| 20260503220230 | 35 | 53 | 5.2 | 5.2 | 0.00 | 0.00 | 0.00 | 69 | 1018.3 |
| 20260503215731 | 35 | 63 | 2.6 | 5.2 | 0.00 | 0.00 | 0.00 | 69 | 1018.2 |
| 20260503215228 | 35 | 28 | 3.5 | 3.5 | 0.00 | 0.00 | 0.00 | 69 | 1018.2 |
| 20260503214729 | 35 | 76 | 3.5 | 0.9 | 0.00 | 0.00 | 0.00 | 69 | 1018.2 |
| 20260503214229 | 35 | 107 | 0.0 | 5.2 | 0.00 | 0.00 | 0.00 | 69 | 1018.2 |
| 20260503213730 | 34 | 27 | 4.3 | 3.5 | 0.00 | 0.00 | 0.00 | 69 | 1018.2 |
| 20260503213230 | 35 | 30 | 4.3 | 6.1 | 0.00 | 0.00 | 0.00 | 69 | 1018.2 |
| 20260503212730 | 35 | 73 | 4.3 | 4.3 | 0.00 | 0.00 | 0.00 | 68 | 1018.2 |
| 20260503212228 | 35 | 42 | 3.5 | 2.6 | 0.00 | 0.00 | 0.00 | 69 | 1018.1 |
| 20260503211728 | 35 | 70 | 3.5 | 5.2 | 0.00 | 0.00 | 0.00 | 70 | 1018.0 |
| 20260503211229 | 34 | 59 | 6.1 | 5.2 | 0.00 | 0.00 | 0.00 | 69 | 1018.0 |
| 20260503210729 | 34 | 100 | 7.0 | 3.5 | 0.00 | 0.00 | 0.00 | 70 | 1017.9 |
| 20260503210229 | 34 | 70 | 5.2 | 4.3 | 0.00 | 0.00 | 0.00 | 69 | 1017.9 |
| 20260503205730 | 34 | 55 | 5.2 | 7.0 | 0.00 | 0.00 | 0.00 | 69 | 1017.9 |
| 20260503205227 | 35 | 82 | 6.1 | 7.8 | 0.00 | 0.00 | 0.00 | 68 | 1017.9 |
| 20260503204728 | 35 | 72 | 5.2 | 5.2 | 0.00 | 0.00 | 0.00 | 69 | 1017.9 |
| 20260503204228 | 34 | 69 | 4.3 | 6.1 | 0.00 | 0.00 | 0.00 | 70 | 1017.8 |
| 20260503203728 | 34 | 1 | 6.1 | 6.1 | 0.00 | 0.00 | 0.00 | 70 | 1017.9 |
| 20260503203229 | 34 | 69 | 5.2 | 1.7 | 0.00 | 0.00 | 0.00 | 70 | 1017.9 |
| 20260503202729 | 34 | 51 | 3.5 | 5.2 | 0.00 | 0.00 | 0.00 | 71 | 1017.9 |
| 20260503202227 | 33 | 17 | 4.3 | 6.1 | 0.00 | 0.00 | 0.00 | 70 | 1017.8 |
| 20260503201727 | 34 | 34 | 2.6 | 2.6 | 0.00 | 0.00 | 0.00 | 71 | 1017.8 |
| 20260503201228 | 33 | 80 | 6.1 | 7.8 | 0.00 | 0.00 | 0.00 | 71 | 1017.7 |
| 20260503200728 | 33 | 65 | 5.2 | 6.1 | 0.00 | 0.00 | 0.00 | 71 | 1017.7 |
| 20260503200228 | 33 | 59 | 5.2 | 4.3 | 0.00 | 0.00 | 0.00 | 72 | 1017.7 |
| 20260503195729 | 33 | 15 | 5.2 | 4.3 | 0.00 | 0.00 | 0.00 | 72 | 1017.6 |
| 20260503195226 | 33 | 69 | 3.5 | 5.2 | 0.00 | 0.00 | 0.00 | 73 | 1017.6 |
| 20260503194727 | 33 | 63 | 4.3 | 6.1 | 0.00 | 0.00 | 0.00 | 73 | 1017.6 |
| 20260503194227 | 32 | 32 | 2.6 | 4.3 | 0.00 | 0.00 | 0.00 | 75 | 1017.6 |
| 20260503193728 | 32 | 38 | 7.0 | 6.1 | 0.00 | 0.00 | 0.00 | 73 | 1017.6 |
| 20260503193228 | 33 | 24 | 5.2 | 3.5 | 0.00 | 0.00 | 0.00 | 74 | 1017.6 |
| 20260503192728 | 32 | 49 | 5.2 | 4.3 | 0.00 | 0.00 | 0.00 | 74 | 1017.6 |
| 20260503192226 | 32 | 65 | 2.6 | 5.2 | 0.00 | 0.00 | 0.00 | 74 | 1017.6 |
| 20260503191727 | 32 | 18 | 4.3 | 6.1 | 0.00 | 0.00 | 0.00 | 74 | 1017.6 |
| 20260503191227 | 32 | 44 | 2.6 | 5.2 | 0.00 | 0.00 | 0.00 | 74 | 1017.5 |
| 20260503190727 | 31 | 55 | 4.3 | 4.3 | 0.00 | 0.00 | 0.00 | 74 | 1017.5 |
| 20260503190228 | 32 | 44 | 4.3 | 6.1 | 0.00 | 0.00 | 0.00 | 74 | 1017.4 |
| 20260503185728 | 31 | 27 | 4.3 | 5.2 | 0.00 | 0.00 | 0.00 | 75 | 1017.4 |
| 20260503185226 | 31 | 53 | 6.1 | 7.8 | 0.00 | 0.00 | 0.00 | 75 | 1017.3 |
| 20260503184726 | 31 | 84 | 6.1 | 4.3 | 0.00 | 0.00 | 0.00 | 75 | 1017.3 |
| 20260503184226 | 31 | 75 | 5.2 | 5.2 | 0.00 | 0.00 | 0.00 | 75 | 1017.2 |
| 20260503183727 | 30 | 44 | 5.2 | 6.1 | 0.00 | 0.00 | 0.00 | 75 | 1017.2 |
| 20260503183227 | 31 | 70 | 4.3 | 8.7 | 0.00 | 0.00 | 0.00 | 76 | 1017.1 |
| 20260503182727 | 30 | 76 | 3.5 | 4.3 | 0.00 | 0.00 | 0.00 | 76 | 1017.1 |
| 20260503182225 | 30 | 59 | 4.3 | 3.5 | 0.00 | 0.00 | 0.00 | 77 | 1017.1 |
| 20260503181725 | 30 | 4 | 6.1 | 7.0 | 0.00 | 0.00 | 0.00 | 77 | 1017.0 |
| 20260503181226 | 30 | 30 | 7.0 | 5.2 | 0.00 | 0.00 | 0.00 | 76 | 1017.0 |
| 20260503180726 | 30 | 35 | 5.2 | 4.3 | 0.00 | 0.00 | 0.00 | 77 | 1017.0 |
| 20260503180226 | 30 | 76 | 3.5 | 4.3 | 0.00 | 0.00 | 0.00 | 77 | 1017.0 |
| 20260503175727 | 30 | 60 | 4.3 | 3.5 | 0.00 | 0.00 | 0.00 | 77 | 1017.0 |
| 20260503175224 | 29 | 32 | 3.5 | 5.2 | 0.00 | 0.00 | 0.00 | 78 | 1016.9 |
| 20260503174724 | 29 | 55 | 6.1 | 7.0 | 0.00 | 0.00 | 0.00 | 77 | 1016.8 |
| 20260503174225 | 29 | 86 | 4.3 | 7.0 | 0.00 | 0.00 | 0.00 | 78 | 1016.8 |
| 20260503173725 | 29 | 93 | 1.7 | 0.9 | 0.00 | 0.00 | 0.00 | 79 | 1016.8 |
| 20260503173225 | 29 | 31 | 2.6 | 6.1 | 0.00 | 0.00 | 0.00 | 78 | 1016.8 |
| 20260503172726 | 29 | 24 | 3.5 | 6.1 | 0.00 | 0.00 | 0.00 | 79 | 1016.7 |
| 20260503172223 | 29 | 73 | 3.5 | 4.3 | 0.00 | 0.00 | 0.00 | 79 | 1016.7 |
| 20260503171724 | 28 | 25 | 4.3 | 5.2 | 0.00 | 0.00 | 0.00 | 79 | 1016.6 |
| 20260503171224 | 28 | 42 | 4.3 | 4.3 | 0.00 | 0.00 | 0.00 | 79 | 1016.7 |
| 20260503170724 | 29 | 77 | 5.2 | 2.6 | 0.00 | 0.00 | 0.00 | 80 | 1016.6 |
| 20260503170225 | 28 | 37 | 4.3 | 6.1 | 0.00 | 0.00 | 0.00 | 79 | 1016.6 |
| 20260503150721 | 27 | 56 | 4.3 | 5.2 | 0.00 | 0.00 | 0.00 | 82 | 1015.9 |
| 20260503150221 | 27 | 66 | 3.5 | 5.2 | 0.00 | 0.00 | 0.00 | 83 | 1015.8 |
| 20260503140219 | 26 | 98 | 3.5 | 2.6 | 0.00 | 0.00 | 0.00 | 85 | 1015.2 |
| 20260503131216 | 25 | 72 | 4.3 | 1.7 | 0.00 | 0.00 | 0.00 | 90 | 1014.9 |
| 20260503130717 | 25 | 49 | 5.2 | 5.2 | 0.00 | 0.00 | 0.00 | 90 | 1014.9 |
| 20260503130217 | 25 | 48 | 3.5 | 6.1 | 0.00 | 0.00 | 0.00 | 90 | 1014.9 |
| 20260503120214 | 26 | 80 | 5.2 | 5.2 | 0.00 | 0.00 | 0.00 | 91 | 1014.3 |
| 20260503110710 | 27 | 65 | 4.3 | 5.2 | 0.00 | 0.00 | 0.00 | 91 | 1013.4 |
| 20260503110210 | 27 | 55 | 5.2 | 7.8 | 0.00 | 0.00 | 0.00 | 91 | 1013.3 |
| 20260503100207 | 28 | 86 | 5.2 | 4.3 | 0.00 | 0.00 | 0.00 | 89 | 1012.1 |
| 20260503090204 | 29 | 94 | 3.5 | 2.6 | 0.00 | 0.00 | 0.00 | 88 | 1011.5 |
| 20260503081201 | 30 | 35 | 4.3 | 5.2 | 0.00 | 0.00 | 0.00 | 88 | 1010.9 |
| 20260503080701 | 30 | 107 | 2.6 | 1.7 | 0.00 | 0.00 | 0.00 | 88 | 1010.9 |
| 20260503080201 | 31 | 41 | 3.5 | 1.7 | 0.00 | 0.00 | 0.00 | 87 | 1010.9 |
| 20260503072700 | 31 | 68 | 5.2 | 5.2 | 0.00 | 0.00 | 0.00 | 87 | 1010.5 |
| 20260503072158 | 31 | 69 | 5.2 | 2.6 | 0.00 | 0.00 | 0.00 | 87 | 1010.4 |
| 20260503071658 | 31 | 136 | 5.2 | 2.6 | 0.00 | 0.00 | 0.00 | 86 | 1010.4 |
| 20260503071158 | 31 | 3 | 4.3 | 6.1 | 0.00 | 0.00 | 0.00 | 87 | 1010.4 |
| 20260503070659 | 31 | 79 | 5.2 | 7.0 | 0.00 | 0.00 | 0.00 | 87 | 1010.3 |
| 20260503070159 | 31 | 89 | 5.2 | 2.6 | 0.00 | 0.00 | 0.00 | 88 | 1010.2 |
| 20260503060156 | 32 | 76 | 6.1 | 3.5 | 0.00 | 0.00 | 0.00 | 89 | 1009.7 |
| 20260503054654 | 32 | 104 | 6.1 | 3.5 | 0.00 | 0.00 | 0.00 | 85 | 1009.7 |
| 20260503054154 | 32 | 97 | 5.2 | 7.8 | 0.00 | 0.00 | 0.00 | 84 | 1009.6 |
| 20260503053655 | 33 | 75 | 2.6 | 3.5 | 0.00 | 0.00 | 0.00 | 84 | 1009.5 |
| 20260503053155 | 33 | 76 | 3.5 | 2.6 | 0.00 | 0.00 | 0.00 | 84 | 1009.5 |
| 20260503052655 | 33 | 44 | 5.2 | 0.0 | 0.00 | 0.00 | 0.00 | 83 | 1009.4 |
| 20260503052153 | 33 | 68 | 3.5 | 5.2 | 0.00 | 0.00 | 0.00 | 82 | 1009.4 |
| 20260503051653 | 33 | 77 | 1.7 | 6.1 | 0.00 | 0.00 | 0.00 | 81 | 1009.4 |
| 20260503051153 | 33 | 124 | 5.2 | 3.5 | 0.00 | 0.00 | 0.00 | 81 | 1009.4 |
| 20260503050654 | 33 | 75 | 5.2 | 5.2 | 0.00 | 0.00 | 0.00 | 81 | 1009.4 |
| 20260503050154 | 33 | 68 | 4.3 | 3.5 | 0.00 | 0.00 | 0.00 | 81 | 1009.4 |
| 20260503045654 | 33 | 69 | 2.6 | 5.2 | 0.00 | 0.00 | 0.00 | 81 | 1009.4 |
| 20260503045152 | 34 | 72 | 4.3 | 8.7 | 0.00 | 0.00 | 0.00 | 80 | 1009.4 |
| 20260503044652 | 34 | 65 | 3.5 | 1.7 | 0.00 | 0.00 | 0.00 | 80 | 1009.4 |
| 20260503044152 | 34 | 75 | 3.5 | 3.5 | 0.00 | 0.00 | 0.00 | 79 | 1009.4 |
| 20260503043653 | 34 | 97 | 5.2 | 4.3 | 0.00 | 0.00 | 0.00 | 79 | 1009.4 |
| 20260503043153 | 34 | 93 | 4.3 | 7.0 | 0.00 | 0.00 | 0.00 | 79 | 1009.4 |
| 20260503042653 | 34 | 131 | 5.2 | 4.3 | 0.00 | 0.00 | 0.00 | 79 | 1009.3 |
| 20260503042151 | 34 | 82 | 4.3 | 7.8 | 0.00 | 0.00 | 0.00 | 78 | 1009.2 |
| 20260503041651 | 34 | 97 | 5.2 | 3.5 | 0.00 | 0.00 | 0.00 | 78 | 1009.2 |
| 20260503041152 | 34 | 66 | 3.5 | 7.0 | 0.00 | 0.00 | 0.00 | 79 | 1009.2 |
| 20260503040652 | 35 | 49 | 5.2 | 4.3 | 0.00 | 0.00 | 0.00 | 79 | 1009.1 |
| 20260503040152 | 35 | 84 | 4.3 | 2.6 | 0.00 | 0.00 | 0.00 | 79 | 1009.1 |